NORTHEAST SUFFOLK  -  Rip Current Statement Rip Current Statement        NORTHWEST SUFFOLK  -  Rip Current Statement Rip Current Statement        SOUTHEAST SUFFOLK  -  Rip Current Statement Rip Current Statement        SOUTHWEST SUFFOLK  -  Rip Current Statement Rip Current Statement      

Active alerts

Northwest Suffolk
  Details for Northwest Suffolk Rip Current Statement
Southwest Suffolk
  Details for Southwest Suffolk Rip Current Statement
Northeast Suffolk
  Details for Northeast Suffolk Rip Current Statement
Southeast Suffolk
  Details for Southeast Suffolk Rip Current Statement


WXM80 ListenWXM80 Stop

You find our weather info also at:

UK Metoffice

WeatherCloud

Weather Underground

Northeastern Weather Network

AWEKAS

Citizen Weather Observer Program (CWOP)

HAMweather, WeatherForYou, PWS Weather


Weather Underground History page Text

Daily Summary for February 8, 2018 Units:  English    Metric   Both
« Previous Day
Next Day »
Daily Weekly Monthly Yearly Custom
  High: Low: Average:
Temperature: 35.1 °F 24.5 °F 30.5 °F
Dew Point: 32.7 °F 17.4 °F 21.4 °F
Humidity: 91 % 55 % 69 %
Wind Speed: 10.1 mph 0.0 mph 3.9 mph
Wind Gust: 17.3 mph - -
Wind:- - West
Pressure: 30.22 in 29.81 in -
Precipitation: 0.00 in    
Historical Graphs
 
 
Tabular Data for February 8, 2018
Time Temperature Dew Point Pressure Wind Wind Speed Wind Gust Humidity Rainfall Rate (Hourly)
00:01 35.1 °F 32.7 °F 29.81 in NNW 5.6 mph 12.7 mph 91 % 0.00 in
00:06 34.9 °F 32.5 °F 29.81 in North 4.1 mph 9.2 mph 91 % 0.00 in
00:11 34.7 °F 32.1 °F 29.82 in NNW 9.6 mph 15.0 mph 90 % 0.00 in
00:16 34.4 °F 31.8 °F 29.82 in NNW 5.0 mph 12.7 mph 90 % 0.00 in
00:22 34.3 °F 31.4 °F 29.83 in NNW 6.1 mph 10.4 mph 89 % 0.00 in
00:27 34.1 °F 31.2 °F 29.83 in NNW 5.1 mph 8.1 mph 89 % 0.00 in
00:32 34.0 °F 31.1 °F 29.83 in NNE 5.8 mph 9.2 mph 89 % 0.00 in
00:37 33.9 °F 31.0 °F 29.84 in NNW 5.6 mph 9.2 mph 89 % 0.00 in
00:42 33.7 °F 30.5 °F 29.85 in North 6.1 mph 11.5 mph 88 % 0.00 in
00:47 33.6 °F 30.4 °F 29.85 in North 4.9 mph 10.0 mph 88 % 0.00 in
00:52 33.5 °F 30.3 °F 29.86 in North 4.2 mph 8.1 mph 88 % 0.00 in
00:57 33.4 °F 29.9 °F 29.86 in North 6.5 mph 10.4 mph 87 % 0.00 in
01:02 33.2 °F 29.8 °F 29.86 in NNW 3.6 mph 6.0 mph 87 % 0.00 in
01:07 33.2 °F 29.8 °F 29.87 in NW 3.0 mph 8.1 mph 87 % 0.00 in
01:12 33.1 °F 29.7 °F 29.87 in WNW 3.4 mph 11.5 mph 87 % 0.00 in
01:17 33.0 °F 29.6 °F 29.87 in NNW 5.6 mph 10.4 mph 87 % 0.00 in
01:22 33.0 °F 29.3 °F 29.87 in NNW 5.8 mph 11.5 mph 86 % 0.00 in
01:27 32.9 °F 29.2 °F 29.88 in NNW 5.8 mph 10.4 mph 86 % 0.00 in
01:32 32.8 °F 29.1 °F 29.88 in NNW 5.7 mph 12.7 mph 86 % 0.00 in
01:37 32.8 °F 29.1 °F 29.88 in North 4.6 mph 9.2 mph 86 % 0.00 in
01:42 32.8 °F 29.1 °F 29.88 in North 5.8 mph 9.2 mph 86 % 0.00 in
01:47 32.8 °F 28.8 °F 29.89 in NW 8.6 mph 8.6 mph 85 % 0.00 in
01:52 32.7 °F 28.7 °F 29.89 in NNW 9.4 mph 13.8 mph 85 % 0.00 in
01:58 32.6 °F 28.3 °F 29.89 in NW 4.3 mph 8.0 mph 84 % 0.00 in
02:03 32.6 °F 28.3 °F 29.89 in NW 6.9 mph 11.5 mph 84 % 0.00 in
02:08 32.5 °F 27.9 °F 29.89 in NNW 5.5 mph 11.5 mph 83 % 0.00 in
02:13 32.5 °F 27.9 °F 29.90 in NNW 5.9 mph 10.0 mph 83 % 0.00 in
02:18 32.5 °F 27.6 °F 29.90 in NNE 4.0 mph 8.1 mph 82 % 0.00 in
02:23 32.4 °F 27.5 °F 29.90 in NNW 5.8 mph 9.2 mph 82 % 0.00 in
02:28 32.3 °F 27.1 °F 29.90 in NNW 4.2 mph 5.8 mph 81 % 0.00 in
02:33 32.3 °F 27.4 °F 29.90 in NNW 2.9 mph 9.2 mph 82 % 0.00 in
02:38 32.3 °F 27.4 °F 29.90 in NW 3.6 mph 8.1 mph 82 % 0.00 in
02:43 32.3 °F 27.4 °F 29.90 in North 3.8 mph 6.9 mph 82 % 0.00 in
02:48 32.1 °F 27.5 °F 29.90 in NNE 3.3 mph 6.0 mph 83 % 0.00 in
02:53 32.1 °F 27.5 °F 29.90 in NW 4.6 mph 9.2 mph 83 % 0.00 in
02:58 32.1 °F 27.5 °F 29.90 in North 4.0 mph 5.0 mph 83 % 0.00 in
03:03 32.1 °F 27.5 °F 29.90 in NNW 5.1 mph 9.0 mph 83 % 0.00 in
03:08 32.0 °F 27.4 °F 29.90 in NNW 3.3 mph 5.8 mph 83 % 0.00 in
03:13 32.0 °F 27.1 °F 29.91 in NNW 4.6 mph 10.4 mph 82 % 0.00 in
03:18 31.9 °F 26.7 °F 29.91 in WNW 5.3 mph 8.1 mph 81 % 0.00 in
03:23 31.9 °F 26.4 °F 29.91 in North 3.6 mph 5.8 mph 80 % 0.00 in
03:29 31.9 °F 26.4 °F 29.92 in NNW 6.8 mph 6.8 mph 80 % 0.00 in
03:34 31.9 °F 26.1 °F 29.92 in North 4.4 mph 8.1 mph 79 % 0.00 in
03:39 31.9 °F 26.4 °F 29.92 in NW 4.3 mph 11.5 mph 80 % 0.00 in
03:44 31.9 °F 26.1 °F 29.92 in NNW 6.2 mph 11.5 mph 79 % 0.00 in
03:49 31.8 °F 25.7 °F 29.92 in North 8.8 mph 15.0 mph 78 % 0.00 in
03:54 31.7 °F 25.3 °F 29.92 in NNE 7.4 mph 11.5 mph 77 % 0.00 in
03:59 31.6 °F 25.5 °F 29.92 in North 4.6 mph 10.4 mph 78 % 0.00 in
04:04 31.5 °F 25.4 °F 29.92 in NNW 3.8 mph 10.4 mph 78 % 0.00 in
04:09 31.4 °F 25.3 °F 29.93 in North 5.6 mph 10.4 mph 78 % 0.00 in
04:14 31.3 °F 25.2 °F 29.93 in NNW 6.4 mph 15.0 mph 78 % 0.00 in
04:19 31.2 °F 24.8 °F 29.93 in NNW 4.5 mph 6.9 mph 77 % 0.00 in
04:24 31.0 °F 24.6 °F 29.94 in NNW 6.9 mph 12.7 mph 77 % 0.00 in
04:29 30.9 °F 24.5 °F 29.94 in North 4.6 mph 9.2 mph 77 % 0.00 in
04:34 30.8 °F 24.4 °F 29.95 in North 4.2 mph 11.0 mph 77 % 0.00 in
04:39 30.7 °F 24.3 °F 29.94 in North 5.6 mph 13.8 mph 77 % 0.00 in
04:44 30.6 °F 24.2 °F 29.95 in North 2.4 mph 11.5 mph 77 % 0.00 in
04:50 30.5 °F 23.8 °F 29.94 in North 5.6 mph 7.0 mph 76 % 0.00 in
04:55 30.3 °F 24.0 °F 29.95 in North 4.7 mph 8.0 mph 77 % 0.00 in
05:00 30.2 °F 23.9 °F 29.95 in North 5.9 mph 13.8 mph 77 % 0.00 in
05:05 30.1 °F 23.4 °F 29.96 in North 6.6 mph 12.7 mph 76 % 0.00 in
05:10 30.0 °F 23.7 °F 29.96 in NNW 6.0 mph 10.4 mph 77 % 0.00 in
05:15 29.9 °F 23.6 °F 29.96 in NNE 10.1 mph 17.3 mph 77 % 0.00 in
05:20 29.8 °F 23.2 °F 29.96 in NNE 7.6 mph 12.7 mph 76 % 0.00 in
05:25 29.7 °F 23.1 °F 29.97 in NNE 9.3 mph 15.0 mph 76 % 0.00 in
05:30 29.6 °F 22.6 °F 29.97 in NNW 7.4 mph 10.4 mph 75 % 0.00 in
05:35 29.6 °F 22.6 °F 29.97 in North 8.9 mph 12.7 mph 75 % 0.00 in
05:40 29.5 °F 22.6 °F 29.99 in North 5.4 mph 10.4 mph 75 % 0.00 in
05:45 29.4 °F 22.5 °F 29.99 in NE 5.2 mph 9.2 mph 75 % 0.00 in
05:50 29.3 °F 22.0 °F 29.99 in NNW 7.5 mph 11.0 mph 74 % 0.00 in
05:55 29.3 °F 22.0 °F 29.99 in North 6.7 mph 10.0 mph 74 % 0.00 in
06:00 29.2 °F 22.3 °F 29.99 in North 5.6 mph 9.2 mph 75 % 0.00 in
06:05 29.1 °F 21.8 °F 29.99 in NNW 7.5 mph 11.0 mph 74 % 0.00 in
06:10 28.9 °F 21.3 °F 30.00 in North 3.4 mph 11.0 mph 73 % 0.00 in
06:15 28.8 °F 20.6 °F 30.01 in NNW 6.1 mph 11.5 mph 71 % 0.00 in
06:20 28.7 °F 20.8 °F 30.01 in NNE 8.2 mph 12.7 mph 72 % 0.00 in
06:26 28.7 °F 21.1 °F 30.01 in North 6.0 mph 13.0 mph 73 % 0.00 in
06:31 28.6 °F 21.0 °F 30.01 in North 6.0 mph 12.0 mph 73 % 0.00 in
06:36 28.5 °F 20.9 °F 30.02 in North 7.0 mph 12.0 mph 73 % 0.00 in
06:41 28.4 °F 20.8 °F 30.02 in North 6.8 mph 6.9 mph 73 % 0.00 in
06:46 28.3 °F 20.4 °F 30.02 in North 7.0 mph 12.0 mph 72 % 0.00 in
06:51 28.3 °F 20.4 °F 30.02 in North 5.0 mph 10.0 mph 72 % 0.00 in
06:56 28.2 °F 20.3 °F 30.03 in North 7.0 mph 12.0 mph 72 % 0.00 in
07:01 28.1 °F 20.2 °F 30.04 in NNW 5.2 mph 7.0 mph 72 % 0.00 in
07:06 28.0 °F 19.8 °F 30.04 in NNW 5.5 mph 9.2 mph 71 % 0.00 in
07:11 27.9 °F 19.7 °F 30.05 in North 4.6 mph 11.5 mph 71 % 0.00 in
07:16 27.8 °F 19.6 °F 30.04 in NW 4.2 mph 6.9 mph 71 % 0.00 in
07:21 27.8 °F 19.3 °F 30.05 in NNE 6.8 mph 11.5 mph 70 % 0.00 in
07:26 27.7 °F 19.5 °F 30.05 in NW 4.3 mph 11.5 mph 71 % 0.00 in
07:31 27.6 °F 19.1 °F 30.05 in NW 4.5 mph 9.2 mph 70 % 0.00 in
07:36 27.6 °F 19.4 °F 30.06 in NW 3.8 mph 6.9 mph 71 % 0.00 in
07:41 27.6 °F 19.8 °F 30.06 in NW 6.0 mph 10.0 mph 72 % 0.00 in
07:46 27.5 °F 19.7 °F 30.06 in NNW 5.4 mph 10.4 mph 72 % 0.00 in
07:51 27.5 °F 19.3 °F 30.07 in NNW 6.1 mph 10.4 mph 71 % 0.00 in
07:56 27.5 °F 19.7 °F 30.07 in North 4.0 mph 7.0 mph 72 % 0.00 in
08:01 27.5 °F 20.0 °F 30.08 in NNE 5.2 mph 11.5 mph 73 % 0.00 in
08:06 27.4 °F 19.9 °F 30.07 in North 3.7 mph 10.4 mph 73 % 0.00 in
08:11 27.3 °F 19.5 °F 30.08 in North 2.7 mph 7.0 mph 72 % 0.00 in
08:16 27.2 °F 19.4 °F 30.08 in NNW 3.5 mph 6.9 mph 72 % 0.00 in
08:21 27.2 °F 19.7 °F 30.08 in NNE 5.4 mph 8.0 mph 73 % 0.00 in
08:27 27.3 °F 20.1 °F 30.08 in NNE 2.1 mph 9.2 mph 74 % 0.00 in
08:32 27.4 °F 20.5 °F 30.09 in NNE 6.4 mph 10.4 mph 75 % 0.00 in
08:37 27.6 °F 20.7 °F 30.09 in North 1.2 mph 3.5 mph 75 % 0.00 in
08:42 27.8 °F 20.9 °F 30.09 in NNE 5.0 mph 9.2 mph 75 % 0.00 in
08:47 28.1 °F 21.2 °F 30.09 in NNE 4.1 mph 6.9 mph 75 % 0.00 in
08:52 28.4 °F 21.2 °F 30.09 in NE 5.3 mph 9.2 mph 74 % 0.00 in
08:57 28.8 °F 21.2 °F 30.09 in NNE 5.1 mph 7.0 mph 73 % 0.00 in
09:02 29.3 °F 22.0 °F 30.09 in North 4.2 mph 7.0 mph 74 % 0.00 in
09:07 29.7 °F 21.8 °F 30.09 in North 1.2 mph 4.6 mph 72 % 0.00 in
09:12 30.2 °F 21.9 °F 30.10 in NE 4.1 mph 5.0 mph 71 % 0.00 in
09:17 30.9 °F 22.6 °F 30.10 in NNE 1.8 mph 5.8 mph 71 % 0.00 in
09:22 31.4 °F 22.7 °F 30.09 in NNE 0.9 mph 3.5 mph 70 % 0.00 in
09:27 31.7 °F 22.7 °F 30.09 in NNE 5.3 mph 8.1 mph 69 % 0.00 in
09:32 31.4 °F 21.3 °F 30.10 in North 3.1 mph 5.0 mph 66 % 0.00 in
09:37 31.1 °F 21.4 °F 30.09 in North 3.5 mph 4.6 mph 67 % 0.00 in
09:42 31.2 °F 21.9 °F 30.09 in North 3.1 mph 4.6 mph 68 % 0.00 in
09:47 31.3 °F 21.3 °F 30.09 in NNE 5.0 mph 6.9 mph 66 % 0.00 in
09:52 31.7 °F 22.0 °F 30.10 in WNW 3.1 mph 5.8 mph 67 % 0.00 in
09:58 32.2 °F 22.1 °F 30.10 in North 2.8 mph 3.5 mph 66 % 0.00 in
10:03 32.3 °F 21.1 °F 30.10 in North 1.3 mph 4.6 mph 63 % 0.00 in
10:08 32.5 °F 21.3 °F 30.10 in WNW 3.0 mph 8.1 mph 63 % 0.00 in
10:13 32.6 °F 21.0 °F 30.11 in West 3.9 mph 8.1 mph 62 % 0.00 in
10:18 32.8 °F 20.8 °F 30.11 in WNW 3.4 mph 5.8 mph 61 % 0.00 in
10:23 32.9 °F 20.5 °F 30.11 in NNW 5.4 mph 8.1 mph 60 % 0.00 in
10:28 33.0 °F 21.0 °F 30.11 in NW 3.4 mph 4.6 mph 61 % 0.00 in
10:33 33.2 °F 21.2 °F 30.11 in WNW 3.1 mph 6.0 mph 61 % 0.00 in
10:38 33.3 °F 20.9 °F 30.11 in NW 4.7 mph 8.1 mph 60 % 0.00 in
10:43 33.4 °F 20.6 °F 30.10 in WNW 4.1 mph 5.8 mph 59 % 0.00 in
10:48 33.6 °F 21.2 °F 30.11 in NW 3.0 mph 5.8 mph 60 % 0.00 in
10:53 34.0 °F 22.7 °F 30.11 in West 1.7 mph 4.0 mph 63 % 0.00 in
10:58 34.4 °F 22.3 °F 30.11 in NW 2.2 mph 4.6 mph 61 % 0.00 in
11:03 34.7 °F 22.2 °F 30.11 in North 2.4 mph 7.0 mph 60 % 0.00 in
11:08 34.7 °F 21.8 °F 30.11 in NW 4.3 mph 5.8 mph 59 % 0.00 in
11:13 34.7 °F 21.4 °F 30.10 in WSW 4.7 mph 8.1 mph 58 % 0.00 in
11:14 34.7 °F 21.0 °F 30.10 in West 4.8 mph 8.1 mph 57 % 0.00 in
11:19 34.6 °F 21.3 °F 30.10 in NW 2.8 mph 4.6 mph 58 % 0.00 in
11:24 34.5 °F 20.4 °F 30.10 in West 3.2 mph 5.0 mph 56 % 0.00 in
11:29 34.4 °F 20.7 °F 30.10 in WNW 6.9 mph 9.2 mph 57 % 0.00 in
11:34 34.3 °F 20.2 °F 30.10 in NNW 1.8 mph 5.8 mph 56 % 0.00 in
11:39 34.4 °F 21.5 °F 30.09 in NW 4.3 mph 8.1 mph 59 % 0.00 in
11:44 34.3 °F 21.0 °F 30.09 in NNW 5.2 mph 8.1 mph 58 % 0.00 in
11:49 34.1 °F 20.9 °F 30.09 in North 2.3 mph 4.6 mph 58 % 0.00 in
11:54 33.8 °F 20.6 °F 30.09 in WNW 3.1 mph 7.0 mph 58 % 0.00 in
11:59 33.4 °F 20.6 °F 30.09 in NW 2.4 mph 4.0 mph 59 % 0.00 in
12:04 33.4 °F 20.2 °F 30.09 in West 3.1 mph 8.1 mph 58 % 0.00 in
12:09 33.3 °F 20.1 °F 30.09 in NNE 3.8 mph 8.1 mph 58 % 0.00 in
12:14 33.2 °F 20.4 °F 30.10 in WNW 3.1 mph 5.8 mph 59 % 0.00 in
12:20 33.2 °F 21.2 °F 30.09 in WNW 2.6 mph 6.0 mph 61 % 0.00 in
12:25 33.3 °F 20.5 °F 30.09 in North 3.2 mph 4.0 mph 59 % 0.00 in
12:30 33.4 °F 20.2 °F 30.09 in NW 3.9 mph 8.1 mph 58 % 0.00 in
12:35 33.7 °F 20.5 °F 30.09 in North 5.4 mph 9.0 mph 58 % 0.00 in
12:40 33.8 °F 20.2 °F 30.08 in North 4.0 mph 5.8 mph 57 % 0.00 in
12:45 33.8 °F 20.2 °F 30.08 in North 3.4 mph 8.1 mph 57 % 0.00 in
12:50 33.9 °F 19.8 °F 30.08 in NW 2.8 mph 4.6 mph 56 % 0.00 in
12:55 34.0 °F 20.3 °F 30.08 in West 1.1 mph 4.0 mph 57 % 0.00 in
13:00 34.4 °F 21.1 °F 30.09 in West 4.0 mph 6.9 mph 58 % 0.00 in
13:05 34.6 °F 20.9 °F 30.09 in SW 3.9 mph 5.0 mph 57 % 0.00 in
13:10 34.6 °F 20.5 °F 30.09 in WNW 6.2 mph 11.5 mph 56 % 0.00 in
13:15 34.6 °F 20.5 °F 30.08 in West 4.0 mph 6.9 mph 56 % 0.00 in
13:20 34.6 °F 20.1 °F 30.08 in WNW 3.3 mph 6.9 mph 55 % 0.00 in
13:25 34.6 °F 20.5 °F 30.08 in SW 7.2 mph 11.5 mph 56 % 0.00 in
13:30 34.6 °F 20.5 °F 30.07 in West 3.9 mph 6.9 mph 56 % 0.00 in
13:35 34.6 °F 20.5 °F 30.07 in NW 4.5 mph 11.5 mph 56 % 0.00 in
13:41 34.4 °F 19.9 °F 30.07 in West 2.0 mph 10.0 mph 55 % 0.00 in
13:46 34.2 °F 20.1 °F 30.07 in West 3.0 mph 10.0 mph 56 % 0.00 in
13:51 34.3 °F 20.2 °F 30.06 in WNW 3.0 mph 8.0 mph 56 % 0.00 in
13:56 34.3 °F 20.2 °F 30.06 in West 5.0 mph 12.0 mph 56 % 0.00 in
14:01 34.3 °F 20.2 °F 30.06 in SW 2.0 mph 8.1 mph 56 % 0.00 in
14:06 34.5 °F 20.8 °F 30.06 in SW 2.2 mph 6.9 mph 57 % 0.00 in
14:11 34.4 °F 20.3 °F 30.05 in WSW 4.9 mph 11.5 mph 56 % 0.00 in
14:16 34.4 °F 19.9 °F 30.05 in WSW 4.1 mph 10.4 mph 55 % 0.00 in
14:21 34.3 °F 19.8 °F 30.05 in WNW 5.1 mph 11.5 mph 55 % 0.00 in
14:26 34.0 °F 19.9 °F 30.06 in WNW 5.0 mph 9.2 mph 56 % 0.00 in
14:31 33.8 °F 19.7 °F 30.06 in NW 5.5 mph 9.2 mph 56 % 0.00 in
14:36 33.5 °F 19.5 °F 30.06 in SSW 7.0 mph 11.5 mph 56 % 0.00 in
14:41 33.2 °F 19.6 °F 30.06 in WSW 3.4 mph 8.1 mph 57 % 0.00 in
14:46 32.9 °F 19.7 °F 30.06 in NW 4.3 mph 6.9 mph 58 % 0.00 in
14:51 32.6 °F 19.4 °F 30.06 in West 5.8 mph 12.0 mph 58 % 0.00 in
14:56 32.4 °F 19.3 °F 30.06 in WNW 3.5 mph 5.8 mph 58 % 0.00 in
15:01 32.1 °F 19.0 °F 30.06 in WNW 4.8 mph 6.9 mph 58 % 0.00 in
15:06 31.9 °F 18.8 °F 30.06 in NW 6.6 mph 8.1 mph 58 % 0.00 in
15:11 31.6 °F 19.3 °F 30.06 in West 2.3 mph 11.5 mph 60 % 0.00 in
15:16 31.5 °F 19.6 °F 30.06 in WNW 4.8 mph 6.9 mph 61 % 0.00 in
15:21 31.4 °F 19.5 °F 30.07 in NW 4.2 mph 9.2 mph 61 % 0.00 in
15:26 31.3 °F 19.0 °F 30.07 in WNW 5.1 mph 10.4 mph 60 % 0.00 in
15:31 31.1 °F 19.2 °F 30.07 in SW 7.0 mph 11.0 mph 61 % 0.00 in
15:37 31.0 °F 19.1 °F 30.07 in NW 6.7 mph 8.1 mph 61 % 0.00 in
15:42 30.9 °F 19.0 °F 30.08 in WSW 3.4 mph 8.1 mph 61 % 0.00 in
15:47 30.7 °F 19.2 °F 30.07 in WSW 3.9 mph 8.1 mph 62 % 0.00 in
15:52 30.7 °F 19.2 °F 30.08 in NW 3.3 mph 5.8 mph 62 % 0.00 in
15:57 30.6 °F 19.1 °F 30.08 in SW 5.0 mph 10.4 mph 62 % 0.00 in
16:02 30.5 °F 19.0 °F 30.08 in West 2.5 mph 8.1 mph 62 % 0.00 in
16:07 30.4 °F 18.9 °F 30.08 in WNW 3.0 mph 5.8 mph 62 % 0.00 in
16:12 30.3 °F 19.2 °F 30.08 in WNW 3.7 mph 6.9 mph 63 % 0.00 in
16:17 30.2 °F 19.1 °F 30.08 in WNW 2.4 mph 8.1 mph 63 % 0.00 in
16:22 30.1 °F 19.0 °F 30.08 in NW 2.1 mph 3.5 mph 63 % 0.00 in
16:27 30.0 °F 19.3 °F 30.09 in WNW 2.0 mph 7.0 mph 64 % 0.00 in
16:32 29.9 °F 18.8 °F 30.08 in NW 4.4 mph 6.9 mph 63 % 0.00 in
16:37 29.9 °F 18.8 °F 30.08 in WNW 4.6 mph 9.2 mph 63 % 0.00 in
16:42 29.8 °F 18.7 °F 30.08 in WNW 4.8 mph 9.2 mph 63 % 0.00 in
16:47 29.7 °F 19.0 °F 30.09 in WNW 1.9 mph 4.6 mph 64 % 0.00 in
16:52 29.6 °F 18.9 °F 30.10 in WNW 3.2 mph 8.1 mph 64 % 0.00 in
16:57 29.6 °F 19.3 °F 30.10 in WNW 3.6 mph 8.1 mph 65 % 0.00 in
17:02 29.4 °F 19.1 °F 30.10 in WNW 1.5 mph 4.6 mph 65 % 0.00 in
17:08 29.4 °F 19.1 °F 30.09 in WNW 0.7 mph 9.2 mph 65 % 0.00 in
17:13 29.3 °F 19.0 °F 30.10 in WNW 4.8 mph 6.9 mph 65 % 0.00 in
17:18 29.2 °F 18.9 °F 30.10 in NNW 3.5 mph 8.1 mph 65 % 0.00 in
17:23 29.1 °F 18.8 °F 30.10 in NW 5.5 mph 11.5 mph 65 % 0.00 in
17:28 29.0 °F 19.1 °F 30.11 in WNW 3.7 mph 9.0 mph 66 % 0.00 in
17:33 28.9 °F 18.6 °F 30.11 in WNW 4.7 mph 6.9 mph 65 % 0.00 in
17:38 28.8 °F 18.9 °F 30.11 in NW 2.2 mph 6.0 mph 66 % 0.00 in
17:43 28.8 °F 18.9 °F 30.11 in WNW 2.4 mph 6.9 mph 66 % 0.00 in
17:48 28.8 °F 18.9 °F 30.11 in WNW 1.7 mph 3.5 mph 66 % 0.00 in
17:53 28.8 °F 19.2 °F 30.11 in NNW 3.6 mph 7.0 mph 67 % 0.00 in
17:58 28.7 °F 19.1 °F 30.11 in NW 5.4 mph 12.0 mph 67 % 0.00 in
18:03 28.8 °F 18.9 °F 30.12 in WNW 3.5 mph 5.8 mph 66 % 0.00 in
18:08 28.8 °F 18.9 °F 30.12 in WNW 2.4 mph 3.0 mph 66 % 0.00 in
18:13 28.8 °F 18.9 °F 30.12 in WNW 3.7 mph 7.0 mph 66 % 0.00 in
18:18 28.8 °F 18.9 °F 30.13 in NW 2.4 mph 6.9 mph 66 % 0.00 in
18:23 28.9 °F 19.0 °F 30.13 in NNW 3.1 mph 6.9 mph 66 % 0.00 in
18:28 28.9 °F 18.6 °F 30.13 in West 4.2 mph 9.2 mph 65 % 0.00 in
18:34 28.9 °F 18.2 °F 30.13 in NW 3.1 mph 8.1 mph 64 % 0.00 in
18:39 29.0 °F 18.7 °F 30.13 in NNW 2.9 mph 4.6 mph 65 % 0.00 in
18:44 29.0 °F 18.3 °F 30.13 in NW 5.2 mph 8.1 mph 64 % 0.00 in
18:49 29.0 °F 18.3 °F 30.14 in WNW 5.3 mph 9.2 mph 64 % 0.00 in
18:54 29.0 °F 18.3 °F 30.15 in WNW 5.4 mph 9.2 mph 64 % 0.00 in
18:59 29.0 °F 18.7 °F 30.15 in NW 5.4 mph 9.2 mph 65 % 0.00 in
19:04 29.0 °F 18.3 °F 30.15 in WNW 0.7 mph 3.5 mph 64 % 0.00 in
19:09 29.1 °F 18.4 °F 30.15 in NNW 2.5 mph 3.5 mph 64 % 0.00 in
19:14 29.1 °F 18.4 °F 30.15 in WNW 2.1 mph 4.6 mph 64 % 0.00 in
19:19 29.1 °F 18.4 °F 30.16 in NW 4.0 mph 6.9 mph 64 % 0.00 in
19:24 29.1 °F 18.4 °F 30.16 in WNW 4.3 mph 6.9 mph 64 % 0.00 in
19:29 29.1 °F 18.4 °F 30.16 in WNW 4.3 mph 11.5 mph 64 % 0.00 in
19:34 29.1 °F 18.4 °F 30.16 in NW 1.2 mph 3.5 mph 64 % 0.00 in
19:39 29.0 °F 18.0 °F 30.16 in WNW 4.5 mph 4.6 mph 63 % 0.00 in
19:44 29.0 °F 18.3 °F 30.17 in NW 4.9 mph 11.5 mph 64 % 0.00 in
19:49 29.0 °F 18.0 °F 30.16 in WNW 4.0 mph 6.9 mph 63 % 0.00 in
19:55 29.0 °F 18.0 °F 30.17 in NW 1.8 mph 4.6 mph 63 % 0.00 in
20:00 28.9 °F 17.5 °F 30.17 in West 3.6 mph 7.0 mph 62 % 0.00 in
20:05 28.9 °F 17.9 °F 30.17 in WNW 6.2 mph 11.5 mph 63 % 0.00 in
20:10 28.9 °F 17.5 °F 30.18 in WNW 2.4 mph 9.2 mph 62 % 0.00 in
20:15 28.9 °F 17.5 °F 30.18 in West 3.6 mph 9.2 mph 62 % 0.00 in
20:20 28.8 °F 17.4 °F 30.18 in WNW 4.6 mph 7.0 mph 62 % 0.00 in
20:25 28.8 °F 17.8 °F 30.18 in WNW 4.0 mph 10.0 mph 63 % 0.00 in
20:30 28.7 °F 17.7 °F 30.18 in West 3.5 mph 8.1 mph 63 % 0.00 in
20:35 28.7 °F 17.7 °F 30.18 in WNW 3.9 mph 5.8 mph 63 % 0.00 in
20:40 28.6 °F 17.6 °F 30.17 in WNW 3.4 mph 5.8 mph 63 % 0.00 in
20:45 28.5 °F 17.9 °F 30.18 in WNW 1.8 mph 3.5 mph 64 % 0.00 in
20:50 28.4 °F 17.8 °F 30.18 in WNW 1.0 mph 3.5 mph 64 % 0.00 in
20:55 28.3 °F 18.0 °F 30.18 in WNW 2.8 mph 4.6 mph 65 % 0.00 in
21:00 28.2 °F 17.9 °F 30.18 in Calm   2.3 mph 65 % 0.00 in
21:05 28.1 °F 18.2 °F 30.18 in Calm   1.2 mph 66 % 0.00 in
21:10 28.0 °F 18.1 °F 30.18 in WNW 2.4 mph 5.8 mph 66 % 0.00 in
21:15 27.9 °F 18.0 °F 30.18 in WNW 2.0 mph 3.5 mph 66 % 0.00 in
21:20 27.8 °F 18.3 °F 30.18 in Calm   4.0 mph 67 % 0.00 in
21:25 27.7 °F 18.2 °F 30.18 in West 1.0 mph 5.0 mph 67 % 0.00 in
21:30 27.6 °F 18.1 °F 30.18 in West 1.0 mph 5.0 mph 67 % 0.00 in
21:35 27.6 °F 18.1 °F 30.18 in West 1.0 mph 5.0 mph 67 % 0.00 in
21:41 27.5 °F 18.0 °F 30.19 in WNW 1.0 mph 5.0 mph 67 % 0.00 in
21:45 27.5 °F 18.0 °F 30.19 in West 1.0 mph 3.0 mph 67 % 0.00 in
21:50 27.5 °F 17.9 °F 30.19 in WNW 1.0 mph 3.0 mph 67 % 0.00 in
21:55 27.4 °F 18.2 °F 30.19 in Calm     68 % 0.00 in
22:01 27.4 °F 18.2 °F 30.19 in Calm   1.2 mph 68 % 0.00 in
22:05 27.3 °F 18.1 °F 30.19 in Calm   2.0 mph 68 % 0.00 in
22:10 27.2 °F 18.0 °F 30.20 in Calm     68 % 0.00 in
22:15 27.1 °F 18.3 °F 30.19 in Calm   1.0 mph 69 % 0.00 in
22:20 27.0 °F 18.2 °F 30.20 in Calm   1.0 mph 69 % 0.00 in
22:25 26.9 °F 18.1 °F 30.20 in Calm     69 % 0.00 in
22:30 26.7 °F 18.2 °F 30.20 in Calm     70 % 0.00 in
22:35 26.6 °F 18.1 °F 30.20 in Calm     70 % 0.00 in
22:40 26.4 °F 18.0 °F 30.21 in Calm     70 % 0.00 in
22:45 26.2 °F 17.8 °F 30.20 in Calm     70 % 0.00 in
22:50 26.1 °F 18.0 °F 30.20 in Calm     71 % 0.00 in
22:55 26.0 °F 17.8 °F 30.21 in Calm   1.0 mph 71 % 0.00 in
23:01 25.8 °F 17.7 °F 30.21 in Calm     71 % 0.00 in
23:06 25.6 °F 17.8 °F 30.21 in Calm   1.2 mph 72 % 0.00 in
23:11 25.4 °F 17.6 °F 30.21 in Calm   1.2 mph 72 % 0.00 in
23:16 25.3 °F 17.5 °F 30.21 in Calm     72 % 0.00 in
23:21 25.2 °F 17.8 °F 30.22 in West 0.6 mph 2.3 mph 73 % 0.00 in
23:26 25.0 °F 17.6 °F 30.21 in West 0.1 mph 1.2 mph 73 % 0.00 in
23:31 24.9 °F 17.5 °F 30.21 in Calm     73 % 0.00 in
23:36 24.8 °F 17.4 °F 30.21 in West 0.1 mph 1.2 mph 73 % 0.00 in
23:41 24.7 °F 17.6 °F 30.21 in Calm     74 % 0.00 in
23:46 24.7 °F 17.6 °F 30.20 in Calm     74 % 0.00 in
23:51 24.6 °F 17.5 °F 30.20 in West 0.4 mph 1.2 mph 74 % 0.00 in
23:56 24.5 °F 17.4 °F 30.19 in Calm   2.3 mph 74 % 0.00 in
Crab Meadow Weather
Compliments of Weather Underground - 3 mb

Script developed by  Jim McMurry - jmcmurry@mwt.net Adapted for the template by  Wim van der Kuil - Leuven-Template.eu

Clouds: Partly sunny and partly cloudy indicate the same amount of cloud coverage - about 50 percent. Partly sunny is used during the daytime, and partly cloudy is used at night when there is no sun.